This demonstration page uses our WeatherBlox Daily Observations layout. Learn more.

Left ArrowRight Arrow

42.06246, -104.18439

Hourly Observations for April 13, 2021

Temp ( °F °C ) Dew Point ( °F °C ) Humidity (%) Winds ( mph kmh ) Pressure ( in mb ) Visibility ( mi km ) Precip ( " mm )
12:53 am 00:53 Clear 27 -2.8 14 -10 58 58 WNW 7 11 30.32 1027 10 16.0934 0 0
1:53 am 01:53 Clear 25 -3.9 14 -10 63 63 W 5 7 30.32 1027 10 16.0934 0 0
2:53 am 02:53 Clear 25 -3.9 16 -8.9 69 69 NW 10 17 30.3 1026 10 16.0934 0 0
3:53 am 03:53 Clear 24 -4.4 16 -8.9 71 71 W 6 9 30.3 1026 10 16.0934 0 0
4:53 am 04:53 Clear 23 -5 16 -8.9 74 74 WNW 8 13 30.32 1027 10 16.0934 0 0
5:53 am 05:53 Clear 22 -5.6 16 -8.9 78 78 WNW 7 11 30.32 1027 10 16.0934 0 0
6:53 am 06:53 Sunny 23 -5 16 -8.9 74 74 WNW 8 13 30.33 1027 10 16.0934 0 0
7:53 am 07:53 Sunny 27 -2.8 18 -7.8 69 69 NW 8 13 30.34 1028 10 16.0934 0 0
8:53 am 08:53 Mostly Sunny 31 -0.6 16 -8.9 54 54 NNW 18 30 30.34 1028 10 16.0934 0 0
9:53 am 09:53 Mostly Sunny 34 1.1 15 -9.4 46 46 NNW 18 30 30.34 1027 10 16.0934 0 0
10:53 am 10:53 Sunny 37 2.8 14 -10 39 39 NNW 16 26 30.32 1027 10 16.0934 0 0
11:53 am 11:53 Partly Cloudy 39 3.9 15 -9.4 38 38 NNW 14 22 30.29 1026 10 16.0934 0 0
12:53 pm 12:53 Cloudy 39 3.9 15 -9.4 38 38 NW 12 19 30.28 1025 10 16.0934 0 0
1:53 pm 13:53 Mostly Cloudy 42 5.6 15 -9.4 33 33 NW 12 19 30.27 1025 10 16.0934 0 0
2:53 pm 14:53 Sunny 42 5.6 14 -10 32 32 undefined N/A 30.25 1024 10 16.0934 0 0
3:53 pm 15:53 Mostly Cloudy 44 6.7 14 -10 30 30 undefined N/A 30.23 1024 10 16.0934 0 0
4:53 pm 16:53 Sunny 44 6.7 13 -10.6 28 28 WNW 3 6 30.22 1023 10 16.0934 0 0
5:53 pm 17:53 Cloudy 43 6.1 13 -10.6 29 29 NW 5 7 30.23 1024 10 16.0934 0 0
6:53 pm 18:53 Cloudy 42 5.6 13 -10.6 30 30 N 8 13 30.24 1024 10 16.0934 0 0
7:53 pm 19:53 Cloudy 39 3.9 13 -10.6 34 34 N 10 17 30.25 1024 10 16.0934 0 0
8:53 pm 20:53 Mostly Cloudy 36 2.2 15 -9.4 42 42 NNE 14 22 30.27 1025 10 16.0934 0 0
9:53 pm 21:53 Clear 32 0 15 -9.4 50 50 NNE 16 26 30.29 1026 10 16.0934 0 0
10:53 pm 22:53 Mostly Cloudy 31 -0.6 15 -9.4 52 52 NNE 21 33 30.3 1026 10 16.0934 0 0
11:53 pm 23:53 Cloudy 30 -1.1 15 -9.4 54 54 NNE 16 26 30.29 1026 10 16.0934 0 0

Powered by AerisWeather